This demonstration page uses our WeatherBlox Daily Observations layout. Learn more.

Left ArrowRight Arrow

Hourly Observations for August 18, 2022

Temp ( °F °C ) Dew Point ( °F °C ) Humidity (%) Winds ( mph kmh ) Pressure ( in mb ) Visibility ( mi km ) Precip ( " mm )
12:54 am 00:54 Clear 65 18.3 60 15.6 84 84 Calm 30.07 1018 10 16 0.00 0.00
1:54 am 01:54 Clear 62 16.7 59 15 90 90 Calm 30.07 1018 10 16 0.00 0.00
2:54 am 02:54 Clear 61 16.1 58 14.4 90 90 Calm 30.06 1018 10 16 0.00 0.00
3:54 am 03:54 Clear 60 15.6 57 13.9 90 90 Calm 30.06 1018 10 16 0.00 0.00
4:54 am 04:54 Clear 61 16.1 57 13.9 87 87 Calm 30.06 1018 10 16 0.00 0.00
5:54 am 05:54 Clear 62 16.7 59 15 90 90 S 3 6 30.05 1018 10 16 0.00 0.00
6:54 am 06:54 Sunny 62 16.7 58 14.4 86 86 S 3 6 30.06 1018 10 16 0.00 0.00
7:54 am 07:54 Sunny 64 17.8 60 15.6 87 87 Calm 30.06 1018 9 14 0.00 0.00
8:54 am 08:54 Sunny 69 20.6 62 16.7 78 78 Calm 30.06 1018 10 16 0.00 0.00
9:54 am 09:54 Sunny 76 24.4 63 17.2 64 64 SW 8 13 30.04 1017 10 16 0.00 0.00
10:54 am 10:54 Sunny 81 27.2 62 16.7 53 53 WSW 12 19 30.03 1017 10 16 0.00 0.00
11:54 am 11:54 Sunny 84 28.9 61 16.1 46 46 WSW 13 20 30.00 1016 10 16 0.00 0.00
12:54 pm 12:54 Sunny 86 30 61 16.1 43 43 WSW 10 17 29.98 1015 10 16 0.00 0.00
1:54 pm 13:54 Sunny 87 30.6 61 16.1 42 42 WSW 9 15 29.96 1015 10 16 0.00 0.00
2:54 pm 14:54 Mostly Sunny 89 31.7 61 16.1 39 39 SW 20 31 29.94 1014 10 16 0.00 0.00
3:54 pm 15:54 Mostly Sunny 89 31.7 61 16.1 39 39 SSW 17 28 29.92 1013 10 16 0.00 0.00
4:54 pm 16:54 Sunny 89 31.7 60 15.6 38 38 SW 15 24 29.90 1012 10 16 0.00 0.00
5:54 pm 17:54 Sunny 89 31.7 60 15.6 38 38 SW 16 26 29.87 1011 10 16 0.00 0.00
6:54 pm 18:54 Sunny 85 29.4 59 15 42 42 SSW 13 20 29.85 1011 10 16 0.00 0.00
7:54 pm 19:54 Sunny 82 27.8 61 16.1 49 49 SSW 10 17 29.85 1011 10 16 0.00 0.00
8:54 pm 20:54 Mostly Clear 76 24.4 61 16.1 60 60 S 6 9 29.85 1011 10 16 0.00 0.00
9:54 pm 21:54 Clear 76 24.4 62 16.7 62 62 SSW 7 11 29.85 1011 10 16 0.00 0.00
10:54 pm 22:54 Mostly Clear 74 23.3 62 16.7 66 66 SSW 5 7 29.84 1011 10 16 0.00 0.00
11:54 pm 23:54 Mostly Clear 75 23.9 60 15.6 60 60 W 3 6 29.85 1011 10 16 0.00 0.00

Powered by AerisWeather